Location: Unspecified
(0.0000°N, 0.0000°E)
Time: 00:06:30
(UTC+00:00)

Transit 4A - Pass Details

Date: 16 December 2018
Orbit: 868 x 977 km, 66.8° (Epoch: 18 January)

Event Time Altitude Azimuth Distance (km) Brightness Sun altitude
Rises 15:02:38 0° 298° (WNW) 3,634 11.3 39.0°
Reaches altitude 10° 15:07:43 10° 262° (W) 2,710 11.4 37.9°
Maximum altitude 15:09:08 11° 249° (WSW) 2,658 11.6 37.6°
Drops below altitude 10° 15:10:34 10° 236° (SW) 2,718 11.7 37.3°
Sets 15:15:46 0° 200° (SSW) 3,673 11.6 36.2°
